Location: Rounton
(54.4000°N, 1.3500°W)
Time: 14:29:39
(UTC+01:00)

deb Delta 126 - Pass Details

Date: 04 July 2022
Orbit: 1120 x 1970 km, 101.5° (Epoch: 15 August)

Event Time Altitude Azimuth Distance (km) Brightness Sun altitude
Rises 23:49:18 0° 27° (NNE) 5,014 ? -10.8°
Reaches altitude 10° 23:52:33 10° 19° (NNE) 4,121 ? -10.9°
Maximum altitude 00:01:04 33° 322° (NW) 2,871 ? -11.3°
Drops below altitude 10° 00:10:08 10° 265° (W) 4,397 ? -11.6°
Sets 00:13:45 0° 257° (WSW) 5,391 ? -11.8°
